This is the latest recevied weather packets stored in our database for station/object AE5HO. If no packets are shown the sender has not sent any weather packets the latest 10 day(s).
| Time | Temp. | Humidity | Pressure | Rain* | Wind** | Luminosity | Snow |
|---|---|---|---|---|---|---|---|
| 1788112940 | 36.11° C | 44% | 1016.4 hPa | 0 mm | - | 111 W/m² | - |
| 1788112640 | 36.11° C | 42% | 1016.1 hPa | 0 mm | - | 56 W/m² | - |
| 1788112335 | 36.67° C | 43% | 1016.3 hPa | 0 mm | - | 71 W/m² | - |
| 1788112029 | 36.11° C | 42% | 1016.4 hPa | 0 mm | - | 50 W/m² | - |
| 1788111726 | 36.11° C | 42% | 1016.5 hPa | 0 mm | - | 51 W/m² | - |
| 1788111425 | 36.11° C | 43% | 1016.5 hPa | 0 mm | - | 51 W/m² | - |
| 1788111120 | 35.56° C | 44% | 1016.8 hPa | 0 mm | - | 117 W/m² | - |
| 1788110817 | 36.11° C | 43% | 1016.7 hPa | 0 mm | - | 126 W/m² | - |
| 1788110514 | 36.11° C | 45% | 1016.9 hPa | 0 mm | - | 55 W/m² | - |
| 1788110214 | 36.11° C | 44% | 1016.8 hPa | 0 mm | - | 491 W/m² | - |
| 1788109909 | 35.56° C | 46% | 1016.7 hPa | 0 mm | - | 544 W/m² | - |
| 1788109603 | 35.56° C | 47% | 1017.1 hPa | 0 mm | - | 579 W/m² | - |
| 1788109303 | 36.11° C | 46% | 1017 hPa | 0 mm | - | 612 W/m² | - |
| 1788108997 | 35° C | 47% | 1017 hPa | 0 mm | - | 596 W/m² | - |
| 1788108693 | 35.56° C | 47% | 1017.4 hPa | 0 mm | - | 546 W/m² | - |
| 1788108389 | 35° C | 48% | 1017.3 hPa | 0 mm | - | 614 W/m² | - |
| 1788108085 | 35° C | 47% | 1017.2 hPa | 0 mm | - | 494 W/m² | - |
| 1788107782 | 35° C | 48% | 1017.3 hPa | 0 mm | - | 559 W/m² | - |
| 1788107481 | 35° C | 51% | 1017.1 hPa | 0 mm | - | 554 W/m² | - |
| 1788107177 | 34.44° C | 51% | 1017.4 hPa | 0 mm | - | 593 W/m² | - |
| 1788106873 | 34.44° C | 52% | 1017.4 hPa | 0 mm | - | 379 W/m² | - |
| 1788106573 | 34.44° C | 52% | 1017.6 hPa | 0 mm | - | 196 W/m² | - |
| 1788106268 | 35° C | 52% | 1017.5 hPa | 0 mm | - | 614 W/m² | - |
| 1788105964 | 34.44° C | 53% | 1017.5 hPa | 0 mm | - | 592 W/m² | - |
| 1788105664 | 33.89° C | 54% | 1017.5 hPa | 0 mm | - | 593 W/m² | - |
* Rain latest hour (hover to see other rain measurements)
** Current wind speed in m/s (hover to see current wind gust speed)